Terminal Aerodrome Forecast
Issued by NWS Detroit/Pontiac, MI

Home | Current Version | Previous Version | Text Only | Print | Product List | Glossary On
Versions: 1 2 3 4 5 6 7 8 9 10 11 12 13 14 15 16 17 18 19 20 21 22 23 24 25 26
000
FTUS43 KDTX 170520
TAFFNT
TAF
KFNT 170520Z 1706/1806 21007KT P6SM SCT250
     FM171600 23015G25KT P6SM BKN250
     FM172300 23013KT P6SM SCT250=

USA.gov is the U.S. government's official web portal to all federal, state and local government web resources and services.